Air Resources Laboratory banner image
Air Resources Laboratory web site National Oceanic and Atmospheric Administration (NOAA)

wa roundup


Office: SEW

ASUS46 KSEW 200910
RWRWA

WASHINGTON REGIONAL WEATHER ROUNDUP
NATIONAL WEATHER SERVICE SEATTLE WA
200 AM PDT THU SEP 20 2018

NOTE:"FAIR" INDICATES FEW OR NO CLOUDS BELOW 12,000 FEET WITH NO
SIGNIFICANT WEATHER AND/OR OBSTRUCTIONS TO VISIBILITY.

WAZ507-509-555>559-201000-
SEATTLE, TACOMA, EVERETT, AND VICINITY

CITY           SKY/WX    TMP DP  RH WIND       PRES   REMARKS
EVERETT        MOCLDY    53  50  89 NW3       30.10S
BOEING FIELD   LGT RAIN  56  52  86 CALM      30.10S FOG
RENTON         HVY RAIN  55  52  89 E3        30.10S
SEATAC AIRPORT CLOUDY    57  51  80 CALM      30.10S
JBLM-MCCHORD   NOT AVBL
PUYALLUP       CLOUDY    54  50  87 CALM      30.11S
BREMERTON      CLOUDY    55  50  83 CALM      30.10S
JBLM-FT LEWIS  NOT AVBL
TACOMA NARROWS CLOUDY    53  49  86 SW6       30.11R
$$

WAZ001-503-506-510-514-515-201000-
NORTH INTERIOR

CITY           SKY/WX    TMP DP  RH WIND       PRES   REMARKS
BELLINGHAM     CLOUDY    54  51  90 CALM      30.08R
FRIDAY HARBOR  CLOUDY    53  47  79 CALM      30.09S
EASTSOUND      CLOUDY    54  52  94 CALM      30.07S
PORT ANGELES   PTCLDY    51  48  89 NW6       30.10S
EDIZ HOOK      CLOUDY    52  50  94 W12       30.10R
PORT TOWNSEND  FAIR      52  50  93 W5        30.10R
NAS WHIDBEY    MOCLDY    57  50  77 W7        30.12S
ARLINGTON      CLOUDY    55  50  83 NW5       30.10S
BURLINGTON     CLOUDY    54  52  94 CALM      30.09S
$$

WAZ020-022-039-040-504-511-512-201000-
SOUTHWEST INTERIOR

CITY           SKY/WX    TMP DP  RH WIND       PRES   REMARKS
SHELTON        PTCLDY    51  49  92 W7        30.08S
OLYMPIA        CLEAR     50  48  93 S7        30.10F
CHEHALIS       FAIR      48  48 100 SW3       30.13S
KELSO          CLEAR     49  48  97 CALM      30.14S
VANCOUVER      PTCLDY    54  50  86 CALM      30.12S
SCAPPOOSE, OR  CLEAR     50  48  93 W3        30.12S
PORTLAND, OR   PTCLDY    56  50  80 NW6       30.13S
$$

WAZ021-516-517-201000-
WASHINGTON COAST

CITY           SKY/WX    TMP DP  RH WIND       PRES   REMARKS
FORKS          FOG       47  47 100 CALM      30.11F VSB 3/4
HOQUIAM        PTCLDY    52  51  97 CALM      30.12S
ASTORIA, OR    PTCLDY    49  49 100 SE3       30.13S
$$

WAZ019-023-024-040-567>569-201000-
CASCADE MOUNTAINS AND COLUMBIA GORGE

CITY           SKY/WX    TMP DP  RH WIND       PRES   REMARKS
STAMPEDE PASS  FOG       43  43 100 VRB6      30.07S VSB 1/4
TROUTDALE, OR  PTCLDY    57  50  77 W3        30.12S
HOOD RIVER, OR CLOUDY    55  48  76 W8        30.07S
THE DALLES, OR CLEAR     60  47  61 W17       30.03S
$$

WAZ026-027-041>044-520-521-201000-
EAST SLOPES

CITY           SKY/WX    TMP DP  RH WIND       PRES   REMARKS
OMAK           CLEAR     51  40  65 W5        29.94R
WENATCHEE      PTCLDY    57  37  47 NW15      29.97S
ELLENSBURG     PTCLDY    55  41  59 NW16      30.00S
YAKIMA         CLEAR     50  39  66 VRB3      29.99S
SUNNYSIDE ARPT SUNNY     44  42  92 NE5       29.99S
YAKIMA TC      NOT AVBL
$$

WAZ028-034-035-201000-
COLUMBIA BASIN

CITY           SKY/WX    TMP DP  RH WIND       PRES   REMARKS
EPHRATA        PTCLDY    58  34  40 NW14      29.93R
MOSES LAKE     PTCLDY    54  39  57 SW7       29.95R
PASCO          CLEAR     55  41  59 S3        29.99R
RICHLAND ARPT  SUNNY     56  42  59 SW5       29.98S
HERMISTON, OR  CLEAR     58  41  53 SW13      30.00R
$$

WAZ036>038-201000-
NORTHEAST WASHINGTON

CITY           SKY/WX    TMP DP  RH WIND       PRES   REMARKS
SPOKANE GEIGER CLEAR     49  31  49 SE8       29.95S
SPOKANE FELTS  CLEAR     46  34  62 NE5       29.96S
FAIRCHILD AFB  NOT AVBL
COEURDALENE,ID CLEAR     48  38  68 CALM      29.97R
DEER PARK      CLEAR     37  31  78 E3        29.95R
$$

WAZ029>033-201000-
SOUTHEAST WASHINGTON

CITY           SKY/WX    TMP DP  RH WIND       PRES   REMARKS
PULLMAN        CLEAR     40  27  59 CALM      30.00S
LEWISTON, ID   CLEAR     54  34  46 CALM      29.97R
WALLA WALLA    CLEAR     58  39  49 S13       30.02R
PENDLETON, OR  CLEAR     57  38  48 S8        30.02R
$$


ASUS46 KSEW 200910
RWRWA

WASHINGTON REGIONAL WEATHER ROUNDUP
NATIONAL WEATHER SERVICE SEATTLE WA
200 AM PDT THU SEP 20 2018

NOTE:"FAIR" INDICATES FEW OR NO CLOUDS BELOW 12,000 FEET WITH NO
SIGNIFICANT WEATHER AND/OR OBSTRUCTIONS TO VISIBILITY.

WAZ507-509-555>559-201000-
SEATTLE, TACOMA, EVERETT, AND VICINITY

CITY           SKY/WX    TMP DP  RH WIND       PRES   REMARKS
EVERETT        MOCLDY    53  50  89 NW3       30.10S
BOEING FIELD   LGT RAIN  56  52  86 CALM      30.10S FOG
RENTON         HVY RAIN  55  52  89 E3        30.10S
SEATAC AIRPORT CLOUDY    57  51  80 CALM      30.10S
JBLM-MCCHORD   NOT AVBL
PUYALLUP       CLOUDY    54  50  87 CALM      30.11S
BREMERTON      CLOUDY    55  50  83 CALM      30.10S
JBLM-FT LEWIS  NOT AVBL
TACOMA NARROWS CLOUDY    53  49  86 SW6       30.11R
$$

WAZ001-503-506-510-514-515-201000-
NORTH INTERIOR

CITY           SKY/WX    TMP DP  RH WIND       PRES   REMARKS
BELLINGHAM     CLOUDY    54  51  90 CALM      30.08R
FRIDAY HARBOR  CLOUDY    53  47  79 CALM      30.09S
EASTSOUND      CLOUDY    54  52  94 CALM      30.07S
PORT ANGELES   PTCLDY    51  48  89 NW6       30.10S
EDIZ HOOK      CLOUDY    52  50  94 W12       30.10R
PORT TOWNSEND  FAIR      52  50  93 W5        30.10R
NAS WHIDBEY    MOCLDY    57  50  77 W7        30.12S
ARLINGTON      CLOUDY    55  50  83 NW5       30.10S
BURLINGTON     CLOUDY    54  52  94 CALM      30.09S
$$

WAZ020-022-039-040-504-511-512-201000-
SOUTHWEST INTERIOR

CITY           SKY/WX    TMP DP  RH WIND       PRES   REMARKS
SHELTON        PTCLDY    51  49  92 W7        30.08S
OLYMPIA        CLEAR     50  48  93 S7        30.10F
CHEHALIS       FAIR      48  48 100 SW3       30.13S
KELSO          CLEAR     49  48  97 CALM      30.14S
VANCOUVER      PTCLDY    54  50  86 CALM      30.12S
SCAPPOOSE, OR  CLEAR     50  48  93 W3        30.12S
PORTLAND, OR   PTCLDY    56  50  80 NW6       30.13S
$$

WAZ021-516-517-201000-
WASHINGTON COAST

CITY           SKY/WX    TMP DP  RH WIND       PRES   REMARKS
FORKS          FOG       47  47 100 CALM      30.11F VSB 3/4
HOQUIAM        PTCLDY    52  51  97 CALM      30.12S
ASTORIA, OR    PTCLDY    49  49 100 SE3       30.13S
$$

WAZ019-023-024-040-567>569-201000-
CASCADE MOUNTAINS AND COLUMBIA GORGE

CITY           SKY/WX    TMP DP  RH WIND       PRES   REMARKS
STAMPEDE PASS  FOG       43  43 100 VRB6      30.07S VSB 1/4
TROUTDALE, OR  PTCLDY    57  50  77 W3        30.12S
HOOD RIVER, OR CLOUDY    55  48  76 W8        30.07S
THE DALLES, OR CLEAR     60  47  61 W17       30.03S
$$

WAZ026-027-041>044-520-521-201000-
EAST SLOPES

CITY           SKY/WX    TMP DP  RH WIND       PRES   REMARKS
OMAK           CLEAR     51  40  65 W5        29.94R
WENATCHEE      PTCLDY    57  37  47 NW15      29.97S
ELLENSBURG     PTCLDY    55  41  59 NW16      30.00S
YAKIMA         CLEAR     50  39  66 VRB3      29.99S
SUNNYSIDE ARPT SUNNY     44  42  92 NE5       29.99S
YAKIMA TC      NOT AVBL
$$

WAZ028-034-035-201000-
COLUMBIA BASIN

CITY           SKY/WX    TMP DP  RH WIND       PRES   REMARKS
EPHRATA        PTCLDY    58  34  40 NW14      29.93R
MOSES LAKE     PTCLDY    54  39  57 SW7       29.95R
PASCO          CLEAR     55  41  59 S3        29.99R
RICHLAND ARPT  SUNNY     56  42  59 SW5       29.98S
HERMISTON, OR  CLEAR     58  41  53 SW13      30.00R
$$

WAZ036>038-201000-
NORTHEAST WASHINGTON

CITY           SKY/WX    TMP DP  RH WIND       PRES   REMARKS
SPOKANE GEIGER CLEAR     49  31  49 SE8       29.95S
SPOKANE FELTS  CLEAR     46  34  62 NE5       29.96S
FAIRCHILD AFB  NOT AVBL
COEURDALENE,ID CLEAR     48  38  68 CALM      29.97R
DEER PARK      CLEAR     37  31  78 E3        29.95R
$$

WAZ029>033-201000-
SOUTHEAST WASHINGTON

CITY           SKY/WX    TMP DP  RH WIND       PRES   REMARKS
PULLMAN        CLEAR     40  27  59 CALM      30.00S
LEWISTON, ID   CLEAR     54  34  46 CALM      29.97R
WALLA WALLA    CLEAR     58  39  49 S13       30.02R
PENDLETON, OR  CLEAR     57  38  48 S8        30.02R
$$